Zurück zum Katalog

CZ-4 DEB

AktivSSO
NORAD 20902·DEBRIS·🇨🇳 China

Gestartet Sep 3, 1990 von Taiyuan Satellite Launch Center

Loading…

Nächste Überflüge (nächste 24 Stunden)

TLE

AktuellSource: Space-Track

Epoche: Sep 13, 2026, 22:42 UTC

1 20902U 90081BN  26256.94612917  .00000227  00000-0  17585-3 0  9991
2 20902  99.3724  53.7154 0078449 294.9140 230.1604 14.01854446827331

Verfolge CZ-4 DEB in Echtzeit mit AllMySat

Download on the App Store